| time (UTC) | temp F | wind direction | speed knots | gust knots | rain 1hr in | rain 24hr in | rain mn in | humidity % | barometer mb |
| 20260510082421 | 33 | 231 | 0.9 | 3.5 | 0.00 | 0.00 | 0.00 | 99 | 1028.7 |
| 20260510081919 | 33 | 231 | 0.9 | 1.7 | 0.00 | 0.00 | 0.00 | 99 | 1029.0 |
| 20260510081416 | 33 | 257 | 0.0 | 0.9 | 0.00 | 0.00 | 0.00 | 99 | 1028.7 |
| 20260510080912 | 33 | 253 | 0.0 | 0.0 | 0.00 | 0.00 | 0.00 | 99 | 1029.0 |
| 20260510080411 | 33 | 246 | 1.7 | 3.5 | 0.00 | 0.00 | 0.00 | 99 | 1028.9 |
| 20260510075908 | 33 | 232 | 2.6 | 3.5 | 0.00 | 0.00 | 0.00 | 99 | 1029.1 |
| 20260510075407 | 33 | 223 | 3.5 | 5.2 | 0.00 | 0.00 | 0.00 | 99 | 1029.0 |
| 20260510074903 | 33 | 249 | 0.9 | 3.5 | 0.00 | 0.00 | 0.00 | 99 | 1029.0 |
| 20260510074400 | 33 | 233 | 1.7 | 3.5 | 0.00 | 0.00 | 0.00 | 99 | 1029.1 |
| 20260510073856 | 34 | 238 | 0.9 | 1.7 | 0.00 | 0.00 | 0.00 | 99 | 1029.1 |
| 20260510073352 | 34 | 245 | 1.7 | 1.7 | 0.00 | 0.00 | 0.00 | 99 | 1029.0 |
| 20260510072848 | 34 | 267 | 0.0 | 0.0 | 0.00 | 0.00 | 0.00 | 99 | 1029.4 |
| 20260510072345 | 34 | 267 | 0.0 | 0.0 | 0.00 | 0.00 | 0.00 | 99 | 1029.4 |
| 20260510071841 | 34 | 283 | 0.0 | 0.9 | 0.00 | 0.00 | 0.00 | 99 | 1029.6 |
| 20260510071337 | 34 | 276 | 0.0 | 0.9 | 0.00 | 0.00 | 0.00 | 99 | 1029.4 |
| 20260510070837 | 34 | 290 | 0.0 | 0.0 | 0.00 | 0.00 | 0.00 | 99 | 1029.4 |
| 20260510070332 | 34 | 271 | 0.0 | 0.0 | 0.00 | 0.00 | 0.00 | 99 | 1029.8 |
| 20260510065827 | 34 | 271 | 0.0 | 0.0 | 0.00 | 0.00 | 0.00 | 99 | 1029.6 |
| 20260510065324 | 34 | 264 | 0.0 | 0.0 | 0.00 | 0.00 | 0.00 | 99 | 1029.5 |
| 20260510064821 | 34 | 261 | 0.0 | 0.0 | 0.00 | 0.00 | 0.00 | 99 | 1029.6 |
| 20260510064319 | 34 | 250 | 0.0 | 0.0 | 0.00 | 0.00 | 0.00 | 99 | 1029.5 |
| 20260510063814 | 33 | 249 | 0.0 | 0.9 | 0.00 | 0.00 | 0.00 | 99 | 1029.6 |
| 20260510063311 | 34 | 245 | 0.9 | 1.7 | 0.00 | 0.00 | 0.00 | 99 | 1029.5 |
| 20260510062808 | 34 | 272 | 1.7 | 1.7 | 0.00 | 0.00 | 0.00 | 99 | 1029.8 |
| 20260510062306 | 34 | 236 | 1.7 | 1.7 | 0.00 | 0.00 | 0.00 | 99 | 1029.5 |
| 20260510061759 | 34 | 311 | 0.0 | 0.0 | 0.00 | 0.00 | 0.00 | 99 | 1029.5 |
| 20260510061256 | 34 | 248 | 0.0 | 2.6 | 0.00 | 0.00 | 0.00 | 99 | 1029.4 |
| 20260510060752 | 34 | 250 | 0.0 | 1.7 | 0.00 | 0.00 | 0.00 | 99 | 1029.1 |
| 20260510060249 | 34 | 230 | 0.9 | 2.6 | 0.00 | 0.00 | 0.00 | 99 | 1029.3 |
| 20260510055746 | 33 | 247 | 0.0 | 0.0 | 0.00 | 0.00 | 0.00 | 99 | 1029.5 |
| 20260510055244 | 33 | 274 | 0.0 | 0.9 | 0.00 | 0.00 | 0.00 | 99 | 1029.8 |
| 20260510054743 | 33 | 279 | 0.9 | 1.7 | 0.00 | 0.00 | 0.00 | 99 | 1029.6 |
| 20260510054240 | 33 | 273 | 0.0 | 2.6 | 0.00 | 0.00 | 0.00 | 99 | 1029.8 |
| 20260510053739 | 33 | 283 | 0.9 | 2.6 | 0.00 | 0.00 | 0.00 | 99 | 1029.5 |
| 20260510053236 | 33 | 309 | 0.9 | 3.5 | 0.00 | 0.00 | 0.00 | 99 | 1029.8 |
| 20260510052731 | 33 | 320 | 0.9 | 2.6 | 0.00 | 0.00 | 0.00 | 99 | 1029.8 |
| 20260510052228 | 33 | 275 | 0.0 | 0.9 | 0.00 | 0.00 | 0.00 | 99 | 1029.6 |
| 20260510051724 | 34 | 265 | 0.0 | 0.9 | 0.00 | 0.00 | 0.00 | 99 | 1029.8 |
| 20260510051220 | 33 | 342 | 0.9 | 1.7 | 0.00 | 0.00 | 0.00 | 99 | 1029.9 |
| 20260510050718 | 33 | 290 | 0.9 | 5.2 | 0.00 | 0.00 | 0.00 | 99 | 1029.9 |
| 20260510050215 | 33 | 276 | 0.9 | 1.7 | 0.00 | 0.00 | 0.00 | 99 | 1029.6 |
| 20260510045712 | 33 | 302 | 2.6 | 2.6 | 0.00 | 0.00 | 0.00 | 99 | 1029.5 |
| 20260510045208 | 33 | 30 | 2.6 | 5.2 | 0.00 | 0.00 | 0.00 | 99 | 1029.4 |
| 20260510044704 | 34 | 66 | 5.2 | 7.0 | 0.00 | 0.00 | 0.00 | 99 | 1029.4 |
| 20260510044202 | 34 | 299 | 2.6 | 6.1 | 0.00 | 0.00 | 0.00 | 99 | 1029.8 |
| 20260510043657 | 34 | 8 | 1.7 | 5.2 | 0.00 | 0.00 | 0.00 | 99 | 1029.8 |
| 20260510043154 | 34 | 343 | 0.9 | 1.7 | 0.00 | 0.00 | 0.00 | 99 | 1030.0 |
| 20260510042652 | 34 | 274 | 0.9 | 5.2 | 0.00 | 0.00 | 0.00 | 99 | 1030.2 |
| 20260510042148 | 34 | 249 | 0.0 | 3.5 | 0.00 | 0.00 | 0.00 | 99 | 1029.9 |
| 20260510041645 | 34 | 301 | 3.5 | 8.7 | 0.00 | 0.00 | 0.00 | 99 | 1030.2 |
| 20260510041142 | 34 | 278 | 0.9 | 3.5 | 0.00 | 0.00 | 0.00 | 99 | 1029.9 |
| 20260510040639 | 34 | 48 | 0.9 | 6.1 | 0.00 | 0.00 | 0.00 | 99 | 1029.6 |
| 20260510040136 | 34 | 324 | 3.5 | 7.0 | 0.00 | 0.00 | 0.00 | 98 | 1029.6 |
| 20260510035631 | 34 | 319 | 2.6 | 7.0 | 0.00 | 0.00 | 0.00 | 98 | 1029.5 |
| 20260510035126 | 35 | 285 | 2.6 | 6.1 | 0.00 | 0.00 | 0.00 | 98 | 1029.8 |
| 20260510034624 | 35 | 142 | 5.2 | 7.0 | 0.00 | 0.00 | 0.00 | 98 | 1029.5 |
| 20260510034121 | 35 | 300 | 4.3 | 7.0 | 0.00 | 0.00 | 0.00 | 98 | 1029.6 |
| 20260510033617 | 36 | 127 | 3.5 | 6.1 | 0.00 | 0.00 | 0.00 | 97 | 1029.4 |
| 20260510033115 | 36 | 267 | 1.7 | 3.5 | 0.00 | 0.00 | 0.00 | 97 | 1029.1 |
| 20260510032611 | 36 | 270 | 1.7 | 5.2 | 0.00 | 0.00 | 0.00 | 97 | 1029.3 |
| 20260510032106 | 36 | 286 | 1.7 | 3.5 | 0.00 | 0.00 | 0.00 | 96 | 1029.0 |
| 20260510031601 | 36 | 327 | 1.7 | 6.1 | 0.00 | 0.00 | 0.00 | 96 | 1029.3 |
| 20260510031058 | 36 | 338 | 1.7 | 2.6 | 0.00 | 0.00 | 0.00 | 97 | 1028.6 |
| 20260510030553 | 36 | 260 | 0.0 | 1.7 | 0.00 | 0.00 | 0.00 | 97 | 1028.7 |
| 20260510030051 | 36 | 241 | 0.9 | 1.7 | 0.00 | 0.00 | 0.00 | 97 | 1028.9 |
| 20260510025548 | 36 | 273 | 0.0 | 1.7 | 0.00 | 0.00 | 0.00 | 97 | 1029.0 |
| 20260510025046 | 36 | 282 | 2.6 | 3.5 | 0.00 | 0.00 | 0.00 | 97 | 1028.9 |
| 20260510024542 | 36 | 341 | 0.0 | 0.9 | 0.00 | 0.00 | 0.00 | 97 | 1028.5 |
| 20260510024038 | 36 | 295 | 0.9 | 5.2 | 0.00 | 0.00 | 0.00 | 97 | 1028.1 |
| 20260510023529 | 36 | 315 | 0.9 | 5.2 | 0.00 | 0.00 | 0.00 | 97 | 1027.7 |
| 20260510023027 | 36 | 333 | 6.1 | 9.6 | 0.00 | 0.00 | 0.00 | 96 | 1027.8 |
| 20260510022526 | 36 | 18 | 5.2 | 7.8 | 0.00 | 0.00 | 0.00 | 95 | 1027.3 |
| 20260510022025 | 36 | 348 | 3.5 | 12.2 | 0.00 | 0.00 | 0.00 | 94 | 1027.4 |
| 20260510021522 | 37 | 39 | 6.1 | 11.3 | 0.00 | 0.00 | 0.00 | 93 | 1027.1 |
| 20260510021021 | 37 | 40 | 4.3 | 7.0 | 0.00 | 0.00 | 0.00 | 91 | 1027.1 |
| 20260510020514 | 37 | 32 | 7.0 | 9.6 | 0.00 | 0.00 | 0.00 | 89 | 1026.8 |
| 20260510020010 | 38 | 356 | 4.3 | 7.8 | 0.00 | 0.00 | 0.00 | 87 | 1026.6 |
| 20260510015506 | 39 | 334 | 4.3 | 12.2 | 0.00 | 0.00 | 0.00 | 84 | 1026.5 |
| 20260510015001 | 40 | 271 | 5.2 | 12.2 | 0.00 | 0.00 | 0.00 | 82 | 1026.0 |
| 20260510014459 | 41 | 27 | 2.6 | 8.7 | 0.00 | 0.00 | 0.00 | 78 | 1026.0 |
| 20260510013955 | 42 | 349 | 2.6 | 6.1 | 0.00 | 0.00 | 0.00 | 74 | 1025.6 |
| 20260510013450 | 43 | 32 | 1.7 | 6.1 | 0.00 | 0.00 | 0.00 | 71 | 1025.4 |
| 20260510012946 | 45 | 356 | 4.3 | 11.3 | 0.00 | 0.00 | 0.00 | 67 | 1025.6 |
| 20260510012441 | 47 | 1 | 6.1 | 8.7 | 0.00 | 0.00 | 0.00 | 58 | 1025.3 |
| 20260510011937 | 53 | 349 | 5.2 | 7.0 | 0.00 | 0.00 | 0.00 | 21 | 1024.9 |
| 20260510011431 | 53 | 357 | 1.7 | 8.7 | 0.00 | 0.00 | 0.00 | 21 | 1024.8 |
| 20260510010927 | 54 | 343 | 0.9 | 7.0 | 0.00 | 0.00 | 0.00 | 23 | 1024.8 |
| 20260510010425 | 54 | 17 | 3.5 | 7.8 | 0.00 | 0.00 | 0.00 | 23 | 1024.6 |
| 20260510005922 | 55 | 329 | 7.0 | 8.7 | 0.00 | 0.00 | 0.00 | 22 | 1024.8 |
| 20260510005417 | 55 | 346 | 4.3 | 7.0 | 0.00 | 0.00 | 0.00 | 23 | 1024.8 |
| 20260510004915 | 55 | 303 | 6.1 | 13.0 | 0.00 | 0.00 | 0.00 | 22 | 1024.8 |
| 20260510004412 | 55 | 253 | 4.3 | 6.1 | 0.00 | 0.00 | 0.00 | 24 | 1024.4 |
| 20260510003910 | 55 | 345 | 4.3 | 8.7 | 0.00 | 0.00 | 0.00 | 24 | 1024.5 |
| 20260510003407 | 55 | 333 | 7.0 | 8.7 | 0.00 | 0.00 | 0.00 | 24 | 1024.4 |
| 20260510002906 | 55 | 21 | 5.2 | 7.8 | 0.00 | 0.00 | 0.00 | 25 | 1024.3 |
| 20260510002403 | 55 | 302 | 3.5 | 6.1 | 0.00 | 0.00 | 0.00 | 33 | 1024.3 |
| 20260510001900 | 55 | 328 | 5.2 | 6.1 | 0.00 | 0.00 | 0.00 | 33 | 1024.3 |
| 20260510001357 | 56 | 10 | 1.7 | 3.5 | 0.00 | 0.00 | 0.00 | 31 | 1024.0 |
| 20260510000854 | 56 | 341 | 6.1 | 8.7 | 0.00 | 0.00 | 0.00 | 29 | 1024.1 |
| 20260510000351 | 56 | 321 | 2.6 | 7.0 | 0.00 | 0.00 | 0.00 | 29 | 1024.3 |
| 20260509235847 | 55 | 15 | 1.7 | 7.0 | 0.00 | 0.00 | 0.00 | 30 | 1024.0 |
| 20260509235344 | 55 | 26 | 1.7 | 3.5 | 0.00 | 0.00 | 0.00 | 34 | 1024.1 |
| 20260509234840 | 55 | 356 | 1.7 | 2.6 | 0.00 | 0.00 | 0.00 | 34 | 1024.0 |
| 20260509234337 | 55 | 87 | 1.7 | 2.6 | 0.00 | 0.00 | 0.00 | 32 | 1023.6 |
| 20260509233836 | 56 | 251 | 0.9 | 3.5 | 0.00 | 0.00 | 0.00 | 34 | 1023.6 |
| 20260509233333 | 56 | 263 | 0.0 | 2.6 | 0.00 | 0.00 | 0.00 | 32 | 1023.7 |
| 20260509232828 | 56 | 333 | 2.6 | 7.8 | 0.00 | 0.00 | 0.00 | 34 | 1023.6 |
| 20260509232326 | 57 | 36 | 1.7 | 6.1 | 0.00 | 0.00 | 0.00 | 34 | 1023.6 |
| 20260509231822 | 57 | 309 | 1.7 | 5.2 | 0.00 | 0.00 | 0.00 | 32 | 1023.5 |
| 20260509231319 | 56 | 8 | 1.7 | 6.1 | 0.00 | 0.00 | 0.00 | 32 | 1023.7 |
| 20260509230817 | 56 | 312 | 2.6 | 6.1 | 0.00 | 0.00 | 0.00 | 29 | 1023.7 |
| 20260509230314 | 55 | 32 | 0.9 | 5.2 | 0.00 | 0.00 | 0.00 | 34 | 1023.6 |
| 20260509225808 | 54 | 284 | 0.9 | 5.2 | 0.00 | 0.00 | 0.00 | 34 | 1023.5 |
| 20260509225306 | 55 | 110 | 2.6 | 5.2 | 0.00 | 0.00 | 0.00 | 33 | 1023.3 |
| 20260509224801 | 55 | 348 | 3.5 | 6.1 | 0.00 | 0.00 | 0.00 | 34 | 1023.5 |
| 20260509224258 | 55 | 262 | 0.0 | 1.7 | 0.00 | 0.00 | 0.00 | 34 | 1023.3 |
| 20260509223755 | 56 | 249 | 2.6 | 6.1 | 0.00 | 0.00 | 0.00 | 34 | 1024.0 |
| 20260509223252 | 56 | 263 | 0.0 | 0.0 | 0.00 | 0.00 | 0.00 | 35 | 1023.7 |
| 20260509222749 | 55 | 266 | 0.9 | 3.5 | 0.00 | 0.00 | 0.00 | 35 | 1023.9 |
| 20260509222244 | 57 | 35 | 4.3 | 6.1 | 0.00 | 0.00 | 0.00 | 34 | 1023.3 |
| 20260509221740 | 57 | 296 | 1.7 | 2.6 | 0.00 | 0.00 | 0.00 | 33 | 1023.5 |
| 20260509221237 | 58 | 335 | 1.7 | 9.6 | 0.00 | 0.00 | 0.00 | 32 | 1023.5 |
| 20260509220732 | 58 | 31 | 3.5 | 7.8 | 0.00 | 0.00 | 0.00 | 28 | 1023.6 |
| 20260509220229 | 61 | 290 | 5.2 | 7.8 | 0.00 | 0.00 | 0.00 | 21 | 1023.5 |
| 20260509215725 | 58 | 62 | 3.5 | 12.2 | 0.00 | 0.00 | 0.00 | 25 | 1023.6 |
| 20260509215221 | 57 | 283 | 4.3 | 7.0 | 0.00 | 0.00 | 0.00 | 26 | 1023.3 |
| 20260509214719 | 57 | 273 | 0.9 | 1.7 | 0.00 | 0.00 | 0.00 | 25 | 1023.6 |
| 20260509214215 | 56 | 291 | 1.7 | 1.7 | 0.00 | 0.00 | 0.00 | 24 | 1023.6 |
| 20260509213713 | 56 | 260 | 1.7 | 5.2 | 0.00 | 0.00 | 0.00 | 26 | 1023.6 |
| 20260509213208 | 57 | 266 | 5.2 | 8.7 | 0.00 | 0.00 | 0.00 | 23 | 1024.0 |
| 20260509212706 | 59 | 280 | 5.2 | 8.7 | 0.00 | 0.00 | 0.00 | 23 | 1023.6 |
| 20260509212203 | 59 | 13 | 5.2 | 9.6 | 0.00 | 0.00 | 0.00 | 24 | 1023.6 |
| 20260509211658 | 62 | 347 | 2.6 | 6.1 | 0.00 | 0.00 | 0.00 | 23 | 1023.6 |
| 20260509211155 | 60 | 33 | 3.5 | 11.3 | 0.00 | 0.00 | 0.00 | 23 | 1023.6 |
| 20260509210652 | 59 | 247 | 2.6 | 7.0 | 0.00 | 0.00 | 0.00 | 25 | 1023.6 |
| 20260509210144 | 58 | 299 | 6.1 | 8.7 | 0.00 | 0.00 | 0.00 | 25 | 1023.9 |
| 20260509205639 | 58 | 284 | 5.2 | 12.2 | 0.00 | 0.00 | 0.00 | 24 | 1023.7 |
| 20260509205138 | 59 | 255 | 5.2 | 13.0 | 0.00 | 0.00 | 0.00 | 25 | 1023.6 |
| 20260509204635 | 60 | 291 | 3.5 | 9.6 | 0.00 | 0.00 | 0.00 | 24 | 1023.7 |
| 20260509204131 | 60 | 310 | 6.1 | 8.7 | 0.00 | 0.00 | 0.00 | 25 | 1023.5 |
| 20260509203627 | 60 | 327 | 5.2 | 14.8 | 0.00 | 0.00 | 0.00 | 24 | 1023.6 |
| 20260509203120 | 60 | 246 | 5.2 | 7.0 | 0.00 | 0.00 | 0.00 | 24 | 1023.5 |
| 20260509202619 | 60 | 333 | 7.0 | 9.6 | 0.00 | 0.00 | 0.00 | 25 | 1023.7 |
| 20260509202116 | 62 | 303 | 2.6 | 5.2 | 0.00 | 0.00 | 0.00 | 26 | 1023.5 |
| 20260509201615 | 59 | 347 | 5.2 | 7.8 | 0.00 | 0.00 | 0.00 | 24 | 1023.9 |
| 20260509201114 | 59 | 284 | 5.2 | 9.6 | 0.00 | 0.00 | 0.00 | 26 | 1023.9 |
| 20260509200615 | 59 | 258 | 3.5 | 8.7 | 0.00 | 0.00 | 0.00 | 25 | 1023.9 |
| 20260509200105 | 60 | 276 | 4.3 | 12.2 | 0.00 | 0.00 | 0.00 | 24 | 1023.6 |
| 20260509195601 | 60 | 46 | 1.7 | 6.1 | 0.00 | 0.00 | 0.00 | 25 | 1023.5 |
| 20260509195055 | 60 | 8 | 5.2 | 7.8 | 0.00 | 0.00 | 0.00 | 25 | 1023.9 |
| 20260509194555 | 59 | 210 | 7.8 | 9.6 | 0.00 | 0.00 | 0.00 | 24 | 1023.9 |
| 20260509194053 | 60 | 254 | 5.2 | 9.6 | 0.00 | 0.00 | 0.00 | 23 | 1023.9 |
| 20260509193548 | 60 | 264 | 5.2 | 7.8 | 0.00 | 0.00 | 0.00 | 24 | 1023.9 |
| 20260509193044 | 59 | 329 | 9.6 | 11.3 | 0.00 | 0.00 | 0.00 | 23 | 1023.7 |
| 20260509192541 | 58 | 276 | 11.3 | 13.9 | 0.00 | 0.00 | 0.00 | 24 | 1024.1 |
| 20260509192036 | 59 | 195 | 4.3 | 6.1 | 0.00 | 0.00 | 0.00 | 23 | 1023.9 |
| 20260509191531 | 58 | 306 | 4.3 | 12.2 | 0.00 | 0.00 | 0.00 | 29 | 1024.0 |
| 20260509191027 | 58 | 277 | 5.2 | 15.6 | 0.00 | 0.00 | 0.00 | 25 | 1024.0 |
| 20260509190525 | 58 | 20 | 5.2 | 9.6 | 0.00 | 0.00 | 0.00 | 26 | 1023.9 |
| 20260509190023 | 60 | 279 | 9.6 | 12.2 | 0.00 | 0.00 | 0.00 | 25 | 1024.1 |
| 20260509185520 | 59 | 296 | 6.1 | 13.9 | 0.00 | 0.00 | 0.00 | 26 | 1024.0 |
| 20260509185016 | 58 | 355 | 3.5 | 11.3 | 0.00 | 0.00 | 0.00 | 24 | 1023.9 |
| 20260509184514 | 59 | 298 | 7.8 | 12.2 | 0.00 | 0.00 | 0.00 | 24 | 1023.6 |
| 20260509184010 | 57 | 287 | 6.1 | 7.8 | 0.00 | 0.00 | 0.00 | 26 | 1024.0 |
| 20260509183505 | 57 | 275 | 2.6 | 7.0 | 0.00 | 0.00 | 0.00 | 26 | 1023.7 |
| 20260509183001 | 57 | 339 | 6.1 | 12.2 | 0.00 | 0.00 | 0.00 | 25 | 1024.3 |
| 20260509182458 | 57 | 340 | 5.2 | 14.8 | 0.00 | 0.00 | 0.00 | 26 | 1024.3 |
| 20260509181955 | 56 | 262 | 2.6 | 13.9 | 0.00 | 0.00 | 0.00 | 28 | 1024.0 |
| 20260509181454 | 56 | 265 | 11.3 | 13.9 | 0.00 | 0.00 | 0.00 | 26 | 1024.1 |
| 20260509180951 | 57 | 287 | 8.7 | 13.0 | 0.00 | 0.00 | 0.00 | 27 | 1024.1 |
| 20260509180446 | 56 | 247 | 2.6 | 13.0 | 0.00 | 0.00 | 0.00 | 29 | 1024.1 |
| 20260509175943 | 56 | 325 | 5.2 | 13.9 | 0.00 | 0.00 | 0.00 | 28 | 1024.0 |
| 20260509175439 | 55 | 266 | 3.5 | 11.3 | 0.00 | 0.00 | 0.00 | 28 | 1024.1 |
| 20260509174935 | 57 | 237 | 6.1 | 8.7 | 0.00 | 0.00 | 0.00 | 28 | 1024.3 |
| 20260509174432 | 56 | 338 | 4.3 | 7.0 | 0.00 | 0.00 | 0.00 | 29 | 1023.9 |
| 20260509173927 | 55 | 243 | 2.6 | 7.8 | 0.00 | 0.00 | 0.00 | 29 | 1024.1 |
| 20260509173426 | 55 | 262 | 4.3 | 8.7 | 0.00 | 0.00 | 0.00 | 30 | 1024.1 |
| 20260509172923 | 55 | 295 | 3.5 | 7.0 | 0.00 | 0.00 | 0.00 | 31 | 1024.0 |
| 20260509172420 | 55 | 258 | 0.9 | 11.3 | 0.00 | 0.00 | 0.00 | 29 | 1024.1 |
| 20260509171916 | 55 | 266 | 5.2 | 13.0 | 0.00 | 0.00 | 0.00 | 28 | 1024.0 |
| 20260509171412 | 57 | 324 | 5.2 | 9.6 | 0.00 | 0.00 | 0.00 | 30 | 1024.0 |
| 20260509170908 | 56 | 257 | 2.6 | 8.7 | 0.00 | 0.00 | 0.00 | 29 | 1024.1 |
| 20260509170404 | 55 | 24 | 2.6 | 12.2 | 0.00 | 0.00 | 0.00 | 28 | 1023.9 |
| 20260509165900 | 55 | 256 | 4.3 | 9.6 | 0.00 | 0.00 | 0.00 | 28 | 1023.9 |
| 20260509165354 | 54 | 330 | 7.8 | 13.9 | 0.00 | 0.00 | 0.00 | 28 | 1024.3 |
| 20260509164850 | 54 | 260 | 2.6 | 8.7 | 0.00 | 0.00 | 0.00 | 29 | 1024.0 |
| 20260509164346 | 55 | 260 | 5.2 | 13.9 | 0.00 | 0.00 | 0.00 | 28 | 1023.9 |
| 20260509163843 | 53 | 293 | 7.0 | 15.6 | 0.00 | 0.00 | 0.00 | 30 | 1023.9 |
| 20260509163339 | 55 | 318 | 8.7 | 18.2 | 0.00 | 0.00 | 0.00 | 28 | 1023.7 |
| 20260509162839 | 55 | 261 | 4.3 | 9.6 | 0.00 | 0.00 | 0.00 | 29 | 1024.0 |
| 20260509162332 | 53 | 266 | 7.0 | 14.8 | 0.00 | 0.00 | 0.00 | 29 | 1023.9 |
| 20260509161829 | 54 | 29 | 6.1 | 11.3 | 0.00 | 0.00 | 0.00 | 32 | 1023.9 |
| 20260509161325 | 53 | 235 | 6.1 | 12.2 | 0.00 | 0.00 | 0.00 | 29 | 1023.9 |
| 20260509160821 | 53 | 290 | 5.2 | 8.7 | 0.00 | 0.00 | 0.00 | 30 | 1023.9 |
| 20260509160316 | 54 | 292 | 4.3 | 9.6 | 0.00 | 0.00 | 0.00 | 32 | 1023.9 |
| 20260509155812 | 53 | 236 | 3.5 | 20.0 | 0.00 | 0.00 | 0.00 | 32 | 1023.6 |
| 20260509155308 | 53 | 290 | 3.5 | 3.5 | 0.00 | 0.00 | 0.00 | 34 | 1023.7 |
| 20260509154804 | 54 | 278 | 3.5 | 7.0 | 0.00 | 0.00 | 0.00 | 34 | 1023.7 |
| 20260509154301 | 54 | 311 | 2.6 | 2.6 | 0.00 | 0.00 | 0.00 | 33 | 1023.7 |
| 20260509153758 | 52 | 267 | 0.9 | 1.7 | 0.00 | 0.00 | 0.00 | 34 | 1023.9 |
| 20260509153254 | 51 | 350 | 7.8 | 9.6 | 0.00 | 0.00 | 0.00 | 35 | 1023.9 |
| 20260509152751 | 52 | 334 | 6.1 | 7.0 | 0.00 | 0.00 | 0.00 | 37 | 1023.6 |
| 20260509152247 | 53 | 229 | 0.9 | 0.9 | 0.00 | 0.00 | 0.00 | 31 | 1023.6 |
| 20260509151745 | 53 | 98 | 2.6 | 5.2 | 0.00 | 0.00 | 0.00 | 34 | 1023.9 |
| 20260509151241 | 51 | 265 | 0.0 | 3.5 | 0.00 | 0.00 | 0.00 | 36 | 1023.6 |
| 20260509150740 | 51 | 271 | 1.7 | 6.1 | 0.00 | 0.00 | 0.00 | 34 | 1023.5 |
| 20260509150238 | 52 | 355 | 2.6 | 6.1 | 0.00 | 0.00 | 0.00 | 37 | 1023.6 |
| 20260509145735 | 52 | 319 | 2.6 | 3.5 | 0.00 | 0.00 | 0.00 | 35 | 1023.6 |
| 20260509145234 | 51 | 62 | 2.6 | 2.6 | 0.00 | 0.00 | 0.00 | 32 | 1023.9 |
| 20260509144732 | 51 | 241 | 0.0 | 1.7 | 0.00 | 0.00 | 0.00 | 34 | 1023.9 |
| 20260509144228 | 50 | 331 | 2.6 | 5.2 | 0.00 | 0.00 | 0.00 | 38 | 1023.9 |
| 20260509143725 | 49 | 272 | 1.7 | 2.6 | 0.00 | 0.00 | 0.00 | 35 | 1024.0 |
| 20260509143222 | 49 | 232 | 3.5 | 3.5 | 0.00 | 0.00 | 0.00 | 34 | 1024.1 |
| 20260509142718 | 48 | 220 | 0.0 | 2.6 | 0.00 | 0.00 | 0.00 | 40 | 1024.0 |
| 20260509142215 | 48 | 295 | 0.9 | 1.7 | 0.00 | 0.00 | 0.00 | 39 | 1023.9 |
| 20260509141710 | 47 | 258 | 0.0 | 1.7 | 0.00 | 0.00 | 0.00 | 40 | 1023.6 |
| 20260509141208 | 47 | 282 | 1.7 | 2.6 | 0.00 | 0.00 | 0.00 | 42 | 1023.7 |
| 20260509140704 | 47 | 302 | 1.7 | 2.6 | 0.00 | 0.00 | 0.00 | 41 | 1023.9 |
| 20260509140202 | 46 | 264 | 0.0 | 0.9 | 0.00 | 0.00 | 0.00 | 42 | 1024.0 |
| 20260509135659 | 44 | 350 | 0.0 | 2.6 | 0.00 | 0.00 | 0.00 | 46 | 1024.1 |
| 20260509135157 | 41 | 278 | 0.0 | 0.0 | 0.00 | 0.00 | 0.00 | 47 | 1024.1 |
| 20260509134653 | 37 | 240 | 0.0 | 1.7 | 0.00 | 0.00 | 0.00 | 60 | 1023.9 |
| 20260509134151 | 38 | 235 | 0.9 | 1.7 | 0.00 | 0.00 | 0.00 | 60 | 1024.1 |
| 20260509133648 | 38 | 233 | 0.0 | 0.0 | 0.00 | 0.00 | 0.00 | 63 | 1023.9 |
| 20260509133145 | 38 | 118 | 2.6 | 2.6 | 0.00 | 0.00 | 0.00 | 53 | 1023.9 |
| 20260509132643 | 38 | 219 | 1.7 | 1.7 | 0.00 | 0.00 | 0.00 | 57 | 1023.9 |
| 20260509132141 | 38 | 213 | 1.7 | 2.6 | 0.00 | 0.00 | 0.00 | 60 | 1023.6 |
| 20260509131637 | 39 | 210 | 1.7 | 2.6 | 0.00 | 0.00 | 0.00 | 58 | 1023.6 |
| 20260509131134 | 40 | 206 | 1.7 | 2.6 | 0.00 | 0.00 | 0.00 | 55 | 1023.3 |
| 20260509130630 | 41 | 228 | 1.7 | 2.6 | 0.00 | 0.00 | 0.00 | 52 | 1023.6 |
| 20260509130126 | 41 | 244 | 1.7 | 3.5 | 0.00 | 0.00 | 0.00 | 51 | 1023.5 |
| 20260509125623 | 42 | 257 | 0.0 | 1.7 | 0.00 | 0.00 | 0.00 | 50 | 1023.3 |
| 20260509125120 | 43 | 237 | 1.7 | 3.5 | 0.00 | 0.00 | 0.00 | 48 | 1023.1 |
| 20260509124616 | 44 | 248 | 0.9 | 1.7 | 0.00 | 0.00 | 0.00 | 44 | 1023.1 |
| 20260509124114 | 44 | 231 | 3.5 | 3.5 | 0.00 | 0.00 | 0.00 | 45 | 1023.2 |
| 20260509123612 | 44 | 246 | 5.2 | 7.0 | 0.00 | 0.00 | 0.00 | 44 | 1022.8 |
| 20260509123108 | 44 | 270 | 5.2 | 7.0 | 0.00 | 0.00 | 0.00 | 44 | 1022.8 |
| 20260509122604 | 44 | 269 | 6.1 | 13.9 | 0.00 | 0.00 | 0.00 | 43 | 1022.7 |
| 20260509122102 | 44 | 261 | 5.2 | 13.9 | 0.00 | 0.00 | 0.00 | 44 | 1022.7 |
| 20260509121558 | 44 | 249 | 7.0 | 12.2 | 0.00 | 0.00 | 0.00 | 43 | 1022.3 |
| 20260509121055 | 44 | 259 | 13.0 | 13.9 | 0.00 | 0.00 | 0.00 | 45 | 1022.4 |
| 20260509120553 | 44 | 250 | 11.3 | 15.6 | 0.00 | 0.00 | 0.00 | 45 | 1022.3 |
| 20260509120052 | 44 | 317 | 6.1 | 7.8 | 0.00 | 0.00 | 0.00 | 46 | 1022.4 |
| 20260509115548 | 44 | 270 | 7.8 | 12.2 | 0.00 | 0.00 | 0.00 | 45 | 1022.5 |
| 20260509115046 | 44 | 289 | 6.1 | 8.7 | 0.00 | 0.00 | 0.00 | 47 | 1022.4 |
| 20260509114544 | 45 | 252 | 6.1 | 7.8 | 0.00 | 0.00 | 0.00 | 45 | 1022.7 |
| 20260509114042 | 44 | 286 | 2.6 | 11.3 | 0.00 | 0.00 | 0.00 | 47 | 1022.7 |
| 20260509113540 | 44 | 260 | 3.5 | 7.8 | 0.00 | 0.00 | 0.00 | 48 | 1022.7 |
| 20260509113038 | 44 | 206 | 0.9 | 12.2 | 0.00 | 0.00 | 0.00 | 48 | 1022.7 |
| 20260509112534 | 44 | 215 | 1.7 | 8.7 | 0.00 | 0.00 | 0.00 | 47 | 1022.7 |
| 20260509112031 | 45 | 258 | 5.2 | 11.3 | 0.00 | 0.00 | 0.00 | 47 | 1022.5 |
| 20260509111528 | 45 | 253 | 4.3 | 11.3 | 0.00 | 0.00 | 0.00 | 47 | 1022.7 |
| 20260509111025 | 45 | 300 | 5.2 | 13.9 | 0.00 | 0.00 | 0.00 | 47 | 1022.8 |
| 20260509110522 | 45 | 249 | 8.7 | 12.2 | 0.00 | 0.00 | 0.00 | 47 | 1022.5 |
| 20260509110019 | 44 | 247 | 6.1 | 9.6 | 0.00 | 0.00 | 0.00 | 47 | 1022.5 |
| 20260509105517 | 45 | 259 | 5.2 | 9.6 | 0.00 | 0.00 | 0.00 | 47 | 1022.4 |
| 20260509105015 | 45 | 277 | 2.6 | 7.0 | 0.00 | 0.00 | 0.00 | 47 | 1022.7 |
| 20260509104511 | 45 | 225 | 4.3 | 12.2 | 0.00 | 0.00 | 0.00 | 47 | 1022.5 |
| 20260509104008 | 45 | 329 | 3.5 | 7.8 | 0.00 | 0.00 | 0.00 | 48 | 1022.7 |
| 20260509103506 | 45 | 231 | 1.7 | 7.8 | 0.00 | 0.00 | 0.00 | 48 | 1022.5 |
| 20260509103004 | 45 | 259 | 1.7 | 7.8 | 0.00 | 0.00 | 0.00 | 48 | 1022.7 |
| 20260509102502 | 45 | 299 | 5.2 | 8.7 | 0.00 | 0.00 | 0.00 | 48 | 1022.5 |
| 20260509101958 | 45 | 269 | 3.5 | 9.6 | 0.00 | 0.00 | 0.00 | 47 | 1022.5 |
| 20260509101454 | 45 | 242 | 3.5 | 9.6 | 0.00 | 0.00 | 0.00 | 48 | 1022.5 |
| 20260509100951 | 45 | 262 | 2.6 | 7.0 | 0.00 | 0.00 | 0.00 | 48 | 1022.5 |
| 20260509100448 | 45 | 238 | 4.3 | 9.6 | 0.00 | 0.00 | 0.00 | 48 | 1022.7 |
| 20260509095945 | 45 | 231 | 4.3 | 5.2 | 0.00 | 0.00 | 0.00 | 48 | 1022.4 |
| 20260509095442 | 45 | 246 | 3.5 | 5.2 | 0.00 | 0.00 | 0.00 | 48 | 1022.5 |
| 20260509094939 | 45 | 291 | 1.7 | 7.0 | 0.00 | 0.00 | 0.00 | 47 | 1022.7 |
| 20260509094435 | 45 | 264 | 2.6 | 11.3 | 0.00 | 0.00 | 0.00 | 47 | 1022.7 |
| 20260509093933 | 45 | 294 | 7.8 | 11.3 | 0.00 | 0.00 | 0.00 | 47 | 1022.5 |
| 20260509093430 | 45 | 289 | 3.5 | 14.8 | 0.00 | 0.00 | 0.00 | 47 | 1022.4 |
| 20260509092928 | 45 | 283 | 3.5 | 6.1 | 0.00 | 0.00 | 0.00 | 47 | 1022.5 |
| 20260509092426 | 46 | 244 | 5.2 | 7.0 | 0.00 | 0.00 | 0.00 | 47 | 1022.5 |
| 20260509091925 | 46 | 230 | 2.6 | 7.8 | 0.00 | 0.00 | 0.00 | 47 | 1022.7 |
| 20260509091421 | 45 | 266 | 3.5 | 9.6 | 0.00 | 0.00 | 0.00 | 47 | 1022.5 |
| 20260509090918 | 46 | 293 | 1.7 | 3.5 | 0.00 | 0.00 | 0.00 | 47 | 1022.4 |
| 20260509090415 | 46 | 257 | 2.6 | 9.6 | 0.00 | 0.00 | 0.00 | 46 | 1022.3 |
| 20260509085913 | 46 | 211 | 3.5 | 6.1 | 0.00 | 0.00 | 0.00 | 47 | 1022.4 |
| 20260509085410 | 46 | 233 | 3.5 | 6.1 | 0.00 | 0.00 | 0.00 | 47 | 1022.5 |
| 20260509084906 | 46 | 256 | 4.3 | 9.6 | 0.00 | 0.00 | 0.00 | 46 | 1022.3 |
| 20260509084403 | 46 | 263 | 2.6 | 7.0 | 0.00 | 0.00 | 0.00 | 47 | 1022.3 |
| 20260509083901 | 46 | 242 | 3.5 | 7.0 | 0.00 | 0.00 | 0.00 | 47 | 1022.5 |
| 20260509083357 | 46 | 256 | 3.5 | 8.7 | 0.00 | 0.00 | 0.00 | 46 | 1022.7 |
| 20260509082854 | 46 | 251 | 6.1 | 7.8 | 0.00 | 0.00 | 0.00 | 47 | 1022.5 |